| time (UTC) | temp C | wind direction | speed KPH | gust KPH | rain 1hr cm | rain 24hr cm | rain mn cm | humidity % | barometer mb |
| 20260503041214 | 7 | 172 | 0.0 | 0.0 | 0.00 | 0.00 | 0.00 | 76 | 1013.3 |
| 20260503040700 | 7 | 167 | 0.0 | 0.0 | 0.00 | 0.00 | 0.00 | 76 | 1013.3 |
| 20260503040209 | 7 | 161 | 0.0 | 0.0 | 0.00 | 0.00 | 0.00 | 76 | 1013.3 |
| 20260503035712 | 7 | 168 | 0.0 | 0.0 | 0.00 | 0.00 | 0.00 | 75 | 1013.3 |
| 20260503035213 | 7 | 164 | 0.0 | 0.0 | 0.00 | 0.00 | 0.00 | 75 | 1013.3 |
| 20260503034709 | 7 | 189 | 0.0 | 0.0 | 0.00 | 0.00 | 0.00 | 75 | 1013.3 |
| 20260503034215 | 7 | 189 | 0.0 | 0.0 | 0.00 | 0.00 | 0.00 | 75 | 1013.2 |
| 20260503033718 | 7 | 189 | 0.0 | 0.0 | 0.00 | 0.00 | 0.00 | 75 | 1013.2 |
| 20260503033200 | 8 | 169 | 0.0 | 0.0 | 0.00 | 0.00 | 0.00 | 75 | 1013.2 |
| 20260503032706 | 8 | 176 | 0.0 | 0.0 | 0.00 | 0.00 | 0.00 | 74 | 1013.3 |
| 20260503032206 | 8 | 172 | 0.0 | 0.0 | 0.00 | 0.00 | 0.00 | 74 | 1013.3 |
| 20260503031709 | 8 | 170 | 0.0 | 0.0 | 0.00 | 0.00 | 0.00 | 74 | 1013.3 |
| 20260503031210 | 8 | 180 | 0.0 | 0.0 | 0.00 | 0.00 | 0.00 | 74 | 1013.2 |
| 20260503030715 | 8 | 171 | 0.0 | 0.0 | 0.00 | 0.00 | 0.00 | 74 | 1013.2 |
| 20260503030215 | 8 | 170 | 0.0 | 0.0 | 0.00 | 0.00 | 0.00 | 74 | 1013.2 |
| 20260503025700 | 8 | 170 | 0.0 | 0.0 | 0.00 | 0.00 | 0.00 | 74 | 1013.2 |
| 20260503025205 | 8 | 169 | 0.0 | 0.0 | 0.00 | 0.00 | 0.00 | 74 | 1013.2 |
| 20260503024708 | 8 | 170 | 0.0 | 0.0 | 0.00 | 0.00 | 0.00 | 74 | 1013.2 |
| 20260503024210 | 8 | 170 | 0.0 | 0.0 | 0.00 | 0.00 | 0.00 | 74 | 1013.2 |
| 20260503023712 | 8 | 180 | 0.0 | 0.0 | 0.00 | 0.00 | 0.00 | 74 | 1013.2 |
| 20260503023215 | 8 | 171 | 0.0 | 0.0 | 0.00 | 0.00 | 0.00 | 74 | 1013.2 |
| 20260503022718 | 8 | 179 | 0.0 | 0.0 | 0.00 | 0.00 | 0.00 | 74 | 1013.2 |
| 20260503022157 | 8 | 196 | 0.0 | 0.0 | 0.00 | 0.00 | 0.00 | 74 | 1013.2 |
| 20260503021702 | 8 | 190 | 0.0 | 0.0 | 0.00 | 0.00 | 0.00 | 73 | 1013.2 |
| 20260503021204 | 8 | 196 | 0.0 | 0.0 | 0.00 | 0.00 | 0.00 | 73 | 1013.2 |
| 20260503020712 | 8 | 196 | 0.0 | 0.0 | 0.00 | 0.00 | 0.00 | 73 | 1013.2 |
| 20260503020213 | 8 | 196 | 0.0 | 0.0 | 0.00 | 0.00 | 0.00 | 73 | 1013.2 |
| 20260503015716 | 8 | 188 | 0.0 | 0.0 | 0.00 | 0.00 | 0.00 | 72 | 1013.2 |
| 20260503015200 | 8 | 191 | 0.0 | 0.0 | 0.00 | 0.00 | 0.00 | 73 | 1013.2 |
| 20260503014703 | 8 | 191 | 0.0 | 0.0 | 0.00 | 0.00 | 0.00 | 73 | 1013.2 |
| 20260503014157 | 8 | 191 | 0.0 | 0.0 | 0.00 | 0.00 | 0.00 | 73 | 1013.2 |
| 20260503013712 | 8 | 191 | 0.0 | 0.0 | 0.00 | 0.00 | 0.00 | 74 | 1013.2 |
| 20260503013205 | 8 | 191 | 0.0 | 0.0 | 0.00 | 0.00 | 0.00 | 74 | 1013.2 |
| 20260503012701 | 8 | 192 | 0.0 | 0.0 | 0.00 | 0.00 | 0.00 | 74 | 1013.2 |
| 20260503012216 | 8 | 191 | 0.0 | 0.0 | 0.00 | 0.00 | 0.00 | 74 | 1013.2 |
| 20260503011701 | 8 | 192 | 0.0 | 0.0 | 0.00 | 0.00 | 0.00 | 73 | 1013.2 |
| 20260503011207 | 8 | 154 | 0.0 | 0.0 | 0.00 | 0.00 | 0.00 | 72 | 1013.4 |
| 20260503010707 | 8 | 128 | 0.0 | 0.0 | 0.00 | 0.00 | 0.00 | 72 | 1013.4 |
| 20260503010209 | 8 | 127 | 0.0 | 0.0 | 0.00 | 0.00 | 0.00 | 71 | 1013.4 |
| 20260503005714 | 8 | 126 | 0.0 | 0.0 | 0.00 | 0.00 | 0.00 | 71 | 1013.5 |
| 20260503005205 | 8 | 127 | 0.0 | 0.0 | 0.00 | 0.00 | 0.00 | 71 | 1013.5 |
| 20260503004707 | 8 | 127 | 0.0 | 0.0 | 0.00 | 0.00 | 0.00 | 71 | 1013.5 |
| 20260503004216 | 8 | 127 | 0.0 | 0.0 | 0.00 | 0.00 | 0.00 | 71 | 1013.6 |
| 20260503003707 | 8 | 127 | 0.0 | 0.0 | 0.00 | 0.00 | 0.00 | 71 | 1013.6 |
| 20260503003207 | 8 | 127 | 0.0 | 0.0 | 0.00 | 0.00 | 0.00 | 71 | 1013.6 |
| 20260503002709 | 8 | 360 | 0.0 | 0.0 | 0.00 | 0.00 | 0.00 | 71 | 1013.7 |
| 20260503002158 | 8 | 127 | 0.0 | 0.0 | 0.00 | 0.00 | 0.00 | 71 | 1013.7 |
| 20260503001705 | 8 | 127 | 0.0 | 0.0 | 0.00 | 0.00 | 0.00 | 71 | 1013.7 |
| 20260503001211 | 8 | 126 | 0.0 | 0.0 | 0.00 | 0.00 | 0.00 | 71 | 1013.7 |
| 20260503000716 | 8 | 126 | 0.0 | 0.0 | 0.00 | 0.00 | 0.00 | 71 | 1013.7 |
| 20260503000204 | 9 | 127 | 0.0 | 0.0 | 0.00 | 0.00 | 0.00 | 71 | 1013.7 |
| 20260502235716 | 9 | 127 | 0.0 | 0.0 | 0.00 | 0.00 | 0.00 | 71 | 1013.7 |
| 20260502235202 | 9 | 127 | 0.0 | 0.0 | 0.00 | 0.00 | 0.00 | 70 | 1013.7 |
| 20260502234709 | 9 | 127 | 0.0 | 0.0 | 0.00 | 0.00 | 0.00 | 70 | 1013.7 |
| 20260502234211 | 9 | 126 | 0.0 | 0.0 | 0.00 | 0.00 | 0.00 | 69 | 1013.8 |
| 20260502233715 | 9 | 80 | 0.0 | 0.0 | 0.00 | 0.00 | 0.00 | 68 | 1013.8 |
| 20260502233217 | 9 | 62 | 0.0 | 0.0 | 0.00 | 0.00 | 0.00 | 68 | 1013.8 |
| 20260502232710 | 9 | 34 | 0.0 | 0.0 | 0.00 | 0.00 | 0.00 | 68 | 1013.9 |
| 20260502232205 | 10 | 34 | 0.0 | 0.0 | 0.00 | 0.00 | 0.00 | 68 | 1013.9 |
| 20260502231701 | 10 | 33 | 0.0 | 0.0 | 0.00 | 0.00 | 0.00 | 67 | 1013.9 |
| 20260502231213 | 10 | 34 | 0.0 | 0.0 | 0.00 | 0.00 | 0.00 | 67 | 1014.1 |
| 20260502230713 | 10 | 34 | 0.0 | 0.0 | 0.00 | 0.00 | 0.00 | 66 | 1014.1 |
| 20260502230212 | 10 | 34 | 0.0 | 0.0 | 0.00 | 0.00 | 0.00 | 67 | 1014.1 |
| 20260502225702 | 10 | 33 | 0.0 | 0.0 | 0.00 | 0.00 | 0.00 | 66 | 1014.2 |
| 20260502225209 | 10 | 34 | 0.0 | 0.0 | 0.00 | 0.00 | 0.00 | 66 | 1014.2 |
| 20260502224714 | 10 | 34 | 0.0 | 0.0 | 0.00 | 0.00 | 0.00 | 66 | 1014.2 |
| 20260502224204 | 10 | 33 | 0.0 | 0.0 | 0.00 | 0.00 | 0.00 | 65 | 1014.2 |
| 20260502223712 | 10 | 33 | 0.0 | 0.0 | 0.00 | 0.00 | 0.00 | 65 | 1014.2 |
| 20260502223201 | 10 | 34 | 0.0 | 0.0 | 0.00 | 0.00 | 0.00 | 65 | 1014.2 |
| 20260502222703 | 11 | 34 | 0.0 | 0.0 | 0.00 | 0.00 | 0.00 | 65 | 1014.2 |
| 20260502222215 | 11 | 34 | 0.0 | 0.0 | 0.00 | 0.00 | 0.00 | 64 | 1014.2 |
| 20260502221717 | 11 | 33 | 0.0 | 0.0 | 0.00 | 0.00 | 0.00 | 65 | 1014.2 |
| 20260502221218 | 11 | 33 | 0.0 | 0.0 | 0.00 | 0.00 | 0.00 | 65 | 1014.3 |
| 20260502220701 | 11 | 34 | 0.0 | 0.0 | 0.00 | 0.00 | 0.00 | 65 | 1014.3 |
| 20260502220210 | 11 | 34 | 0.0 | 0.0 | 0.00 | 0.00 | 0.00 | 65 | 1014.3 |
| 20260502215716 | 11 | 34 | 0.0 | 0.0 | 0.00 | 0.00 | 0.00 | 65 | 1014.3 |
| 20260502215211 | 11 | 34 | 0.0 | 0.0 | 0.00 | 0.00 | 0.00 | 64 | 1014.3 |
| 20260502214716 | 11 | 34 | 0.0 | 0.0 | 0.00 | 0.00 | 0.00 | 64 | 1014.3 |
| 20260502214202 | 12 | 33 | 0.0 | 0.0 | 0.00 | 0.00 | 0.00 | 64 | 1015.1 |
| 20260502213707 | 12 | 34 | 0.0 | 0.0 | 0.00 | 0.00 | 0.00 | 63 | 1015.1 |
| 20260502213211 | 12 | 34 | 0.0 | 0.0 | 0.00 | 0.00 | 0.00 | 62 | 1015.1 |
| 20260502212717 | 12 | 34 | 0.0 | 0.0 | 0.00 | 0.00 | 0.00 | 62 | 1015.1 |
| 20260502212158 | 12 | 34 | 0.0 | 0.0 | 0.00 | 0.00 | 0.00 | 62 | 1015.1 |
| 20260502211707 | 12 | 34 | 0.0 | 0.0 | 0.00 | 0.00 | 0.00 | 61 | 1015.1 |
| 20260502211213 | 12 | 34 | 0.0 | 0.0 | 0.00 | 0.00 | 0.00 | 61 | 1014.6 |
| 20260502210701 | 13 | 34 | 0.0 | 0.0 | 0.00 | 0.00 | 0.00 | 61 | 1014.6 |
| 20260502210210 | 13 | 39 | 0.0 | 0.0 | 0.00 | 0.00 | 0.00 | 60 | 1014.6 |
| 20260502205715 | 13 | 34 | 0.0 | 0.0 | 0.00 | 0.00 | 0.00 | 60 | 1014.6 |
| 20260502205216 | 13 | 360 | 0.0 | 0.0 | 0.00 | 0.00 | 0.00 | 60 | 1014.6 |
| 20260502204718 | 13 | 34 | 0.0 | 0.0 | 0.00 | 0.00 | 0.00 | 59 | 1014.6 |
| 20260502204159 | 13 | 34 | 0.0 | 0.0 | 0.00 | 0.00 | 0.00 | 58 | 1014.8 |
| 20260502203707 | 13 | 34 | 0.0 | 0.0 | 0.00 | 0.00 | 0.00 | 58 | 1014.8 |
| 20260502203208 | 14 | 34 | 0.0 | 0.0 | 0.00 | 0.00 | 0.00 | 58 | 1014.8 |
| 20260502202714 | 14 | 34 | 0.0 | 0.0 | 0.00 | 0.00 | 0.00 | 57 | 1015.6 |
| 20260502202201 | 14 | 34 | 0.0 | 0.0 | 0.00 | 0.00 | 0.00 | 56 | 1015.6 |
| 20260502201700 | 15 | 34 | 0.0 | 0.0 | 0.00 | 0.00 | 0.00 | 56 | 1015.6 |
| 20260502201209 | 15 | 34 | 0.0 | 0.0 | 0.00 | 0.00 | 0.00 | 56 | 1015.0 |
| 20260502200713 | 15 | 34 | 0.0 | 0.0 | 0.00 | 0.00 | 0.00 | 56 | 1015.0 |
| 20260502200203 | 15 | 34 | 0.0 | 0.0 | 0.00 | 0.00 | 0.00 | 55 | 1015.0 |
| 20260502195706 | 15 | 34 | 0.0 | 0.0 | 0.00 | 0.00 | 0.00 | 54 | 1014.9 |
| 20260502195208 | 16 | 36 | 0.0 | 0.0 | 0.00 | 0.00 | 0.00 | 54 | 1014.9 |
| 20260502194720 | 16 | 34 | 0.0 | 0.0 | 0.00 | 0.00 | 0.00 | 53 | 1014.9 |
| 20260502194214 | 16 | 34 | 0.0 | 0.0 | 0.00 | 0.00 | 0.00 | 53 | 1015.6 |
| 20260502193720 | 16 | 34 | 0.0 | 0.0 | 0.00 | 0.00 | 0.00 | 52 | 1015.6 |
| 20260502193206 | 17 | 34 | 0.0 | 0.0 | 0.00 | 0.00 | 0.00 | 52 | 1015.6 |
| 20260502192709 | 17 | 34 | 0.0 | 0.0 | 0.00 | 0.00 | 0.00 | 51 | 1015.6 |
| 20260502192208 | 17 | 34 | 0.0 | 0.0 | 0.00 | 0.00 | 0.00 | 50 | 1015.6 |
| 20260502191708 | 17 | 34 | 0.0 | 0.0 | 0.00 | 0.00 | 0.00 | 49 | 1015.6 |
| 20260502191214 | 17 | 34 | 0.0 | 0.0 | 0.00 | 0.00 | 0.00 | 48 | 1014.8 |
| 20260502190710 | 18 | 35 | 0.0 | 0.0 | 0.00 | 0.00 | 0.00 | 47 | 1014.8 |
| 20260502190202 | 18 | 34 | 0.0 | 0.0 | 0.00 | 0.00 | 0.00 | 46 | 1014.8 |
| 20260502185706 | 18 | 34 | 0.0 | 0.0 | 0.00 | 0.00 | 0.00 | 46 | 1014.7 |
| 20260502185213 | 18 | 34 | 0.0 | 0.0 | 0.00 | 0.00 | 0.00 | 45 | 1014.7 |
| 20260502184706 | 19 | 35 | 0.0 | 0.0 | 0.00 | 0.00 | 0.00 | 45 | 1014.7 |
| 20260502184213 | 20 | 34 | 0.0 | 0.0 | 0.00 | 0.00 | 0.00 | 44 | 1015.3 |
| 20260502183658 | 20 | 360 | 0.0 | 0.0 | 0.00 | 0.00 | 0.00 | 43 | 1015.3 |
| 20260502183207 | 20 | 34 | 0.0 | 0.0 | 0.00 | 0.00 | 0.00 | 43 | 1015.3 |
| 20260502182703 | 20 | 34 | 0.0 | 0.0 | 0.00 | 0.00 | 0.00 | 42 | 1014.3 |
| 20260502182209 | 20 | 34 | 0.0 | 0.0 | 0.00 | 0.00 | 0.00 | 42 | 1014.3 |
| 20260502181717 | 20 | 34 | 0.0 | 0.0 | 0.00 | 0.00 | 0.00 | 41 | 1014.3 |
| 20260502181220 | 20 | 34 | 0.0 | 0.0 | 0.00 | 0.00 | 0.00 | 41 | 1014.8 |
| 20260502180706 | 20 | 34 | 0.0 | 0.0 | 0.00 | 0.00 | 0.00 | 41 | 1014.8 |
| 20260502180212 | 20 | 34 | 0.0 | 0.0 | 0.00 | 0.00 | 0.00 | 41 | 1014.8 |
| 20260502170212 | 22 | 55 | 0.0 | 0.0 | 0.00 | 0.00 | 0.00 | 35 | 1014.5 |
| 20260502164210 | 23 | 5 | 0.0 | 0.0 | 0.00 | 0.00 | 0.00 | 34 | 1014.8 |
| 20260502163712 | 23 | 343 | 0.0 | 0.0 | 0.00 | 0.00 | 0.00 | 35 | 1014.8 |
| 20260502163215 | 23 | 346 | 0.0 | 0.0 | 0.00 | 0.00 | 0.00 | 34 | 1014.8 |
| 20260502162717 | 23 | 360 | 0.0 | 0.0 | 0.00 | 0.00 | 0.00 | 34 | 1015.7 |
| 20260502162204 | 23 | 313 | 0.0 | 0.0 | 0.00 | 0.00 | 0.00 | 33 | 1015.7 |
| 20260502161709 | 23 | 300 | 0.0 | 0.0 | 0.00 | 0.00 | 0.00 | 33 | 1015.7 |
| 20260502161211 | 23 | 300 | 0.0 | 0.0 | 0.00 | 0.00 | 0.00 | 33 | 1015.2 |
| 20260502160716 | 23 | 360 | 0.0 | 0.0 | 0.00 | 0.00 | 0.00 | 34 | 1015.2 |
| 20260502160220 | 23 | 290 | 0.0 | 0.0 | 0.00 | 0.00 | 0.00 | 32 | 1015.2 |
| 20260502152220 | 25 | 19 | 0.0 | 0.0 | 0.00 | 0.00 | 0.00 | 30 | 1016.1 |
| 20260502151706 | 25 | 36 | 1.6 | 0.0 | 0.00 | 0.00 | 0.00 | 29 | 1016.1 |
| 20260502151212 | 25 | 283 | 3.2 | 0.0 | 0.00 | 0.00 | 0.00 | 30 | 1016.3 |
| 20260502150712 | 25 | 288 | 3.2 | 0.0 | 0.00 | 0.00 | 0.00 | 28 | 1016.3 |
| 20260502150203 | 25 | 292 | 3.2 | 0.0 | 0.00 | 0.00 | 0.00 | 31 | 1016.3 |
| 20260502130702 | 23 | 24 | 0.0 | 0.0 | 0.00 | 0.00 | 0.00 | 33 | 1017.9 |
| 20260502130213 | 23 | 351 | 0.0 | 0.0 | 0.00 | 0.00 | 0.00 | 35 | 1017.9 |
| 20260502123712 | 23 | 293 | 1.6 | 0.0 | 0.00 | 0.00 | 0.00 | 35 | 1018.2 |
| 20260502123216 | 23 | 277 | 1.6 | 0.0 | 0.00 | 0.00 | 0.00 | 33 | 1018.2 |
| 20260502122705 | 23 | 360 | 3.2 | 0.0 | 0.00 | 0.00 | 0.00 | 31 | 1018.0 |
| 20260502122211 | 24 | 281 | 3.2 | 0.0 | 0.00 | 0.00 | 0.00 | 35 | 1018.0 |
| 20260502121713 | 24 | 227 | 1.6 | 0.0 | 0.00 | 0.00 | 0.00 | 32 | 1018.0 |
| 20260502121206 | 24 | 178 | 3.2 | 0.0 | 0.00 | 0.00 | 0.00 | 31 | 1018.1 |
| 20260502120700 | 23 | 287 | 1.6 | 0.0 | 0.00 | 0.00 | 0.00 | 34 | 1018.1 |
| 20260502120215 | 23 | 247 | 3.2 | 0.0 | 0.00 | 0.00 | 0.00 | 35 | 1018.1 |
| 20260502115710 | 23 | 149 | 3.2 | 0.0 | 0.00 | 0.00 | 0.00 | 35 | 1018.5 |
| 20260502115201 | 23 | 252 | 0.0 | 0.0 | 0.00 | 0.00 | 0.00 | 35 | 1018.5 |
| 20260502114706 | 23 | 175 | 0.0 | 0.0 | 0.00 | 0.00 | 0.00 | 35 | 1018.5 |
| 20260502114209 | 23 | 242 | 0.0 | 0.0 | 0.00 | 0.00 | 0.00 | 34 | 1018.6 |
| 20260502113714 | 23 | 296 | 4.8 | 0.0 | 0.00 | 0.00 | 0.00 | 36 | 1018.6 |
| 20260502113218 | 23 | 0.0 | 0.0 | 0.00 | 0.00 | 0.00 | 34 | 1018.6 | |
| 20260502112720 | 23 | 360 | 0.0 | 0.0 | 0.00 | 0.00 | 0.00 | 37 | 1018.9 |
| 20260502112210 | 23 | 298 | 0.0 | 0.0 | 0.00 | 0.00 | 0.00 | 37 | 1018.9 |
| 20260502111703 | 23 | 269 | 1.6 | 0.0 | 0.00 | 0.00 | 0.00 | 36 | 1018.9 |
| 20260502111202 | 23 | 226 | 3.2 | 0.0 | 0.00 | 0.00 | 0.00 | 36 | 1018.9 |
| 20260502110721 | 23 | 269 | 1.6 | 0.0 | 0.00 | 0.00 | 0.00 | 38 | 1018.9 |
| 20260502110207 | 23 | 296 | 1.6 | 0.0 | 0.00 | 0.00 | 0.00 | 38 | 1018.9 |
| 20260502105708 | 22 | 342 | 1.6 | 0.0 | 0.00 | 0.00 | 0.00 | 37 | 1019.0 |
| 20260502105211 | 23 | 203 | 1.6 | 0.0 | 0.00 | 0.00 | 0.00 | 34 | 1019.0 |
| 20260502104713 | 22 | 203 | 3.2 | 0.0 | 0.00 | 0.00 | 0.00 | 35 | 1019.0 |
| 20260502104219 | 23 | 360 | 3.2 | 0.0 | 0.00 | 0.00 | 0.00 | 37 | 1019.1 |
| 20260502103702 | 22 | 296 | 4.8 | 0.0 | 0.00 | 0.00 | 0.00 | 38 | 1019.1 |
| 20260502103204 | 22 | 269 | 1.6 | 0.0 | 0.00 | 0.00 | 0.00 | 36 | 1019.1 |
| 20260502102719 | 22 | 291 | 3.2 | 0.0 | 0.00 | 0.00 | 0.00 | 35 | 1019.5 |
| 20260502102208 | 22 | 276 | 4.8 | 0.0 | 0.00 | 0.00 | 0.00 | 36 | 1019.5 |
| 20260502101713 | 22 | 360 | 4.8 | 0.0 | 0.00 | 0.00 | 0.00 | 36 | 1019.5 |
| 20260502101217 | 22 | 296 | 3.2 | 0.0 | 0.00 | 0.00 | 0.00 | 34 | 1019.4 |
| 20260502100702 | 22 | 286 | 4.8 | 0.0 | 0.00 | 0.00 | 0.00 | 36 | 1019.4 |
| 20260502100221 | 22 | 360 | 3.2 | 0.0 | 0.00 | 0.00 | 0.00 | 36 | 1019.4 |
| 20260502091214 | 20 | 313 | 1.6 | 0.0 | 0.00 | 0.00 | 0.00 | 42 | 1019.9 |
| 20260502090721 | 20 | 252 | 0.0 | 0.0 | 0.00 | 0.00 | 0.00 | 42 | 1019.9 |
| 20260502090206 | 19 | 296 | 1.6 | 0.0 | 0.00 | 0.00 | 0.00 | 43 | 1019.9 |
| 20260502071221 | 13 | 141 | 0.0 | 0.0 | 0.00 | 0.00 | 0.00 | 54 | 1020.6 |
| 20260502070706 | 13 | 142 | 0.0 | 0.0 | 0.00 | 0.00 | 0.00 | 53 | 1020.6 |
| 20260502070213 | 13 | 360 | 0.0 | 0.0 | 0.00 | 0.00 | 0.00 | 59 | 1020.6 |
| 20260502065716 | 13 | 143 | 0.0 | 0.0 | 0.00 | 0.00 | 0.00 | 62 | 1020.8 |
| 20260502065218 | 12 | 142 | 0.0 | 0.0 | 0.00 | 0.00 | 0.00 | 65 | 1020.8 |
| 20260502064719 | 11 | 360 | 0.0 | 0.0 | 0.00 | 0.00 | 0.00 | 65 | 1020.8 |
| 20260502064220 | 11 | 142 | 0.0 | 0.0 | 0.00 | 0.00 | 0.00 | 64 | 1019.9 |
| 20260502063706 | 11 | 142 | 0.0 | 0.0 | 0.00 | 0.00 | 0.00 | 65 | 1019.9 |
| 20260502063209 | 11 | 142 | 0.0 | 0.0 | 0.00 | 0.00 | 0.00 | 65 | 1019.9 |
| 20260502062716 | 10 | 142 | 0.0 | 0.0 | 0.00 | 0.00 | 0.00 | 65 | 1020.0 |
| 20260502062219 | 10 | 142 | 0.0 | 0.0 | 0.00 | 0.00 | 0.00 | 67 | 1020.0 |
| 20260502061708 | 10 | 169 | 0.0 | 0.0 | 0.00 | 0.00 | 0.00 | 67 | 1020.0 |
| 20260502061209 | 9 | 168 | 0.0 | 0.0 | 0.00 | 0.00 | 0.00 | 68 | 1019.8 |
| 20260502060708 | 9 | 168 | 0.0 | 0.0 | 0.00 | 0.00 | 0.00 | 69 | 1019.8 |
| 20260502060206 | 8 | 170 | 0.0 | 0.0 | 0.00 | 0.00 | 0.00 | 69 | 1019.8 |
| 20260502055709 | 8 | 169 | 1.6 | 0.0 | 0.00 | 0.00 | 0.00 | 72 | 1020.0 |
| 20260502055215 | 7 | 171 | 1.6 | 0.0 | 0.00 | 0.00 | 0.00 | 72 | 1020.0 |
| 20260502054703 | 7 | 180 | 0.0 | 0.0 | 0.00 | 0.00 | 0.00 | 72 | 1020.0 |
| 20260502054212 | 7 | 189 | 1.6 | 0.0 | 0.00 | 0.00 | 0.00 | 73 | 1020.3 |
| 20260502053704 | 6 | 182 | 0.0 | 0.0 | 0.00 | 0.00 | 0.00 | 75 | 1020.3 |
| 20260502053205 | 6 | 165 | 0.0 | 0.0 | 0.00 | 0.00 | 0.00 | 74 | 1020.3 |
| 20260502052706 | 5 | 173 | 1.6 | 0.0 | 0.00 | 0.00 | 0.00 | 75 | 1020.4 |
| 20260502052218 | 5 | 164 | 0.0 | 0.0 | 0.00 | 0.00 | 0.00 | 76 | 1020.4 |
| 20260502051703 | 4 | 153 | 0.0 | 0.0 | 0.00 | 0.00 | 0.00 | 76 | 1020.4 |
| 20260502051203 | 4 | 152 | 0.0 | 0.0 | 0.00 | 0.00 | 0.00 | 77 | 1020.4 |
| 20260502050712 | 3 | 155 | 0.0 | 0.0 | 0.00 | 0.00 | 0.00 | 80 | 1020.4 |
| 20260502050217 | 2 | 163 | 0.0 | 0.0 | 0.00 | 0.00 | 0.00 | 81 | 1020.4 |
| 20260502045712 | 2 | 149 | 0.0 | 0.0 | 0.00 | 0.00 | 0.00 | 80 | 1020.4 |
| 20260502045215 | 2 | 149 | 0.0 | 0.0 | 0.00 | 0.00 | 0.00 | 79 | 1020.4 |
| 20260502044704 | 2 | 156 | 0.0 | 0.0 | 0.00 | 0.00 | 0.00 | 79 | 1020.4 |
| 20260502044209 | 2 | 98 | 0.0 | 0.0 | 0.00 | 0.00 | 0.00 | 79 | 1020.4 |
| 20260502043715 | 2 | 75 | 0.0 | 0.0 | 0.00 | 0.00 | 0.00 | 78 | 1020.4 |
| 20260502043202 | 2 | 76 | 0.0 | 0.0 | 0.00 | 0.00 | 0.00 | 77 | 1020.4 |
| 20260502042705 | 2 | 76 | 0.0 | 0.0 | 0.00 | 0.00 | 0.00 | 77 | 1020.4 |
| 20260502042201 | 1 | 75 | 0.0 | 0.0 | 0.00 | 0.00 | 0.00 | 76 | 1020.4 |
| 20260502041707 | 2 | 75 | 0.0 | 0.0 | 0.00 | 0.00 | 0.00 | 76 | 1020.4 |